When you browse on this site, cookies collect data to enhance your experience and personalize the content and advertising you see.
Visit our Privacy Policy to learn more. By continuing to use the site, you agree to this use of cookies and data.
  • en Suisse
  • Liste des pays
  • À 7 jours
  • Température de l'eau
  • Carte météo
  • Widgets météo
  • user-avatar
    Se connecter

    Météo par heure à Sopron

    Ce jour, 5 Juin, Vendredi

    Heure Température Précipitation Vent Pression Humidité
    00:00 +17°C° 0 mm 6 m/s 731 mmHg 65%
    01:00 +18°C° 0 mm 4 m/s 731 mmHg 67%
    02:00 +17°C° 0.3 mm 3 m/s 731 mmHg 74%
    03:00 +16°C° 0.3 mm 3 m/s 731 mmHg 81%
    04:00 +15°C° 0.3 mm 2 m/s 730 mmHg 88%
    05:00 +15°C° 2.1 mm 2 m/s 731 mmHg 89%
    06:00 +14°C° 2.1 mm 3 m/s 731 mmHg 91%
    07:00 +13°C° 2.1 mm 4 m/s 731 mmHg 92%
    08:00 +13°C° 2 mm 3 m/s 732 mmHg 91%
    09:00 +14°C° 2 mm 2 m/s 732 mmHg 90%
    10:00 +14°C° 2 mm 1 m/s 732 mmHg 89%
    11:00 +15°C° 0.3 mm 1 m/s 733 mmHg 89%
    12:00 +15°C° 0.3 mm 1 m/s 733 mmHg 89%
    13:00 +15°C° 0.3 mm 1 m/s 733 mmHg 90%
    14:00 +15°C° 0 mm 1 m/s 733 mmHg 88%
    15:00 +16°C° 0 mm 1 m/s 734 mmHg 86%
    16:00 +16°C° 0 mm 1 m/s 734 mmHg 84%
    17:00 +16°C° 0 mm 1 m/s 734 mmHg 85%
    18:00 +16°C° 0 mm 2 m/s 734 mmHg 86%
    19:00 +16°C° 0 mm 2 m/s 734 mmHg 88%
    20:00 +15°C° 0 mm 2 m/s 735 mmHg 88%
    21:00 +14°C° 0 mm 2 m/s 736 mmHg 89%
    22:00 +14°C° 0 mm 2 m/s 737 mmHg 89%
    23:00 +13°C° 0 mm 2 m/s 737 mmHg 89%

    Demain, 6 Juin, Samedi

    Heure Température Précipitation Vent Pression Humidité
    00:00 +13°C° 0 mm 1 m/s 737 mmHg 88%
    01:00 +13°C° 0 mm 1 m/s 738 mmHg 87%
    02:00 +12°C° 0 mm 1 m/s 738 mmHg 87%
    03:00 +12°C° 0 mm 1 m/s 738 mmHg 87%
    04:00 +12°C° 0 mm 1 m/s 739 mmHg 86%
    05:00 +14°C° 0 mm 1 m/s 739 mmHg 82%
    06:00 +15°C° 0 mm 1 m/s 739 mmHg 78%
    07:00 +18°C° 0 mm 1 m/s 740 mmHg 74%
    08:00 +18°C° 0 mm 2 m/s 740 mmHg 69%
    09:00 +20°C° 0 mm 3 m/s 740 mmHg 64%
    10:00 +21°C° 0 mm 4 m/s 740 mmHg 59%
    11:00 +22°C° 0 mm 4 m/s 739 mmHg 59%
    12:00 +22°C° 0 mm 4 m/s 739 mmHg 59%
    13:00 +23°C° 0 mm 4 m/s 739 mmHg 60%
    14:00 +23°C° 0 mm 4 m/s 738 mmHg 60%
    15:00 +23°C° 0 mm 4 m/s 738 mmHg 61%
    16:00 +25°C° 0 mm 4 m/s 738 mmHg 62%
    17:00 +24°C° 0 mm 3 m/s 737 mmHg 67%
    18:00 +22°C° 0 mm 3 m/s 737 mmHg 73%
    19:00 +20°C° 0 mm 2 m/s 737 mmHg 79%
    20:00 +19°C° 0 mm 2 m/s 737 mmHg 83%
    21:00 +18°C° 0 mm 2 m/s 738 mmHg 86%
    22:00 +17°C° 0 mm 2 m/s 738 mmHg 90%
    23:00 +17°C° 0.2 mm 2 m/s 738 mmHg 91%

    Après-demain, 7 Juin, Dimanche

    Heure Température Précipitation Vent Pression Humidité
    00:00 +18°C° 0.2 mm 1 m/s 738 mmHg 91%
    01:00 +16°C° 0.2 mm 1 m/s 738 mmHg 91%
    02:00 +16°C° 0.3 mm 1 m/s 738 mmHg 92%
    03:00 +15°C° 0.3 mm 2 m/s 738 mmHg 93%
    04:00 +15°C° 0.3 mm 2 m/s 738 mmHg 94%
    05:00 +16°C° 0 mm 2 m/s 738 mmHg 90%
    06:00 +17°C° 0 mm 3 m/s 738 mmHg 86%
    07:00 +19°C° 0 mm 3 m/s 738 mmHg 83%
    08:00 +20°C° 0 mm 3 m/s 739 mmHg 78%
    09:00 +21°C° 0 mm 2 m/s 739 mmHg 73%
    10:00 +23°C° 0 mm 2 m/s 739 mmHg 68%
    11:00 +24°C° 0 mm 2 m/s 739 mmHg 65%
    12:00 +24°C° 0 mm 2 m/s 739 mmHg 63%
    13:00 +25°C° 0 mm 2 m/s 739 mmHg 61%
    14:00 +24°C° 0.5 mm 2 m/s 739 mmHg 65%
    15:00 +24°C° 0.5 mm 3 m/s 739 mmHg 70%
    16:00 +22°C° 0.5 mm 4 m/s 739 mmHg 75%
    17:00 +21°C° 0.3 mm 4 m/s 739 mmHg 77%
    18:00 +19°C° 0.3 mm 5 m/s 739 mmHg 79%
    19:00 +17°C° 0.3 mm 5 m/s 739 mmHg 81%
    20:00 +16°C° 0.2 mm 5 m/s 740 mmHg 81%
    21:00 +15°C° 0.2 mm 5 m/s 740 mmHg 81%
    22:00 +14°C° 0.2 mm 5 m/s 740 mmHg 81%
    23:00 +14°C° 0.1 mm 5 m/s 740 mmHg 81%

    8 Juin, Lundi

    Heure Température Précipitation Vent Pression Humidité
    00:00 +14°C° 0.1 mm 4 m/s 740 mmHg 81%
    01:00 +14°C° 0.1 mm 4 m/s 740 mmHg 81%
    02:00 +14°C° 0.1 mm 4 m/s 740 mmHg 81%
    03:00 +13°C° 0.1 mm 4 m/s 740 mmHg 82%
    04:00 +13°C° 0.1 mm 4 m/s 740 mmHg 83%
    05:00 +13°C° 0 mm 4 m/s 740 mmHg 82%
    06:00 +14°C° 0 mm 4 m/s 740 mmHg 82%
    07:00 +14°C° 0 mm 4 m/s 740 mmHg 81%
    08:00 +16°C° 0.1 mm 3 m/s 741 mmHg 80%
    09:00 +16°C° 0.1 mm 2 m/s 741 mmHg 80%
    10:00 +17°C° 0.1 mm 2 m/s 741 mmHg 79%
    11:00 +17°C° 0.1 mm 2 m/s 741 mmHg 77%
    12:00 +18°C° 0.1 mm 2 m/s 741 mmHg 75%
    13:00 +19°C° 0.1 mm 2 m/s 741 mmHg 74%
    14:00 +19°C° 0 mm 2 m/s 741 mmHg 72%
    15:00 +19°C° 0 mm 2 m/s 740 mmHg 70%
    16:00 +20°C° 0 mm 2 m/s 740 mmHg 68%
    17:00 +19°C° 0 mm 2 m/s 740 mmHg 71%
    18:00 +18°C° 0 mm 2 m/s 740 mmHg 75%
    19:00 +18°C° 0 mm 2 m/s 740 mmHg 78%
    20:00 +17°C° 0 mm 2 m/s 741 mmHg 79%
    21:00 +16°C° 0 mm 3 m/s 741 mmHg 80%
    22:00 +16°C° 0 mm 3 m/s 741 mmHg 82%
    23:00 +16°C° 0.1 mm 3 m/s 741 mmHg 82%

    9 Juin, Mardi

    Heure Température Précipitation Vent Pression Humidité
    00:00 +14°C° 0.1 mm 3 m/s 741 mmHg 82%
    01:00 +14°C° 0.1 mm 3 m/s 741 mmHg 83%
    02:00 +14°C° 0.3 mm 3 m/s 741 mmHg 84%
    03:00 +14°C° 0.3 mm 3 m/s 741 mmHg 86%
    04:00 +13°C° 0.3 mm 3 m/s 741 mmHg 88%
    05:00 +14°C° 0.4 mm 4 m/s 741 mmHg 88%
    06:00 +14°C° 0.4 mm 4 m/s 741 mmHg 88%
    07:00 +14°C° 0.4 mm 4 m/s 742 mmHg 88%
    08:00 +14°C° 0.4 mm 4 m/s 742 mmHg 89%
    09:00 +14°C° 0.4 mm 4 m/s 742 mmHg 89%
    10:00 +14°C° 0.4 mm 4 m/s 742 mmHg 90%
    11:00 +14°C° 1.3 mm 4 m/s 742 mmHg 90%
    12:00 +14°C° 1.3 mm 4 m/s 742 mmHg 91%
    13:00 +14°C° 1.3 mm 4 m/s 742 mmHg 92%
    14:00 +14°C° 0.8 mm 4 m/s 742 mmHg 91%
    15:00 +14°C° 0.8 mm 5 m/s 742 mmHg 91%
    16:00 +14°C° 0.8 mm 5 m/s 742 mmHg 91%
    17:00 +14°C° 0.1 mm 4 m/s 742 mmHg 90%
    18:00 +14°C° 0.1 mm 4 m/s 742 mmHg 90%
    19:00 +14°C° 0.1 mm 4 m/s 742 mmHg 89%
    20:00 +14°C° 0 mm 4 m/s 743 mmHg 89%
    21:00 +13°C° 0 mm 3 m/s 743 mmHg 89%
    22:00 +13°C° 0 mm 3 m/s 743 mmHg 89%
    23:00 +12°C° 0 mm 3 m/s 743 mmHg 89%

    10 Juin, Mercredi

    Heure Température Précipitation Vent Pression Humidité
    00:00 +12°C° 0 mm 3 m/s 743 mmHg 89%
    01:00 +12°C° 0 mm 3 m/s 743 mmHg 89%
    02:00 +12°C° 0 mm 2 m/s 744 mmHg 88%
    03:00 +12°C° 0 mm 2 m/s 744 mmHg 88%
    04:00 +12°C° 0 mm 2 m/s 744 mmHg 87%
    05:00 +14°C° 0 mm 2 m/s 744 mmHg 83%
    06:00 +15°C° 0 mm 2 m/s 744 mmHg 78%
    07:00 +17°C° 0 mm 3 m/s 745 mmHg 74%
    08:00 +19°C° 0 mm 3 m/s 745 mmHg 69%
    09:00 +20°C° 0 mm 3 m/s 745 mmHg 65%
    10:00 +22°C° 0 mm 4 m/s 745 mmHg 60%
    11:00 +22°C° 0 mm 3 m/s 745 mmHg 59%
    12:00 +24°C° 0 mm 3 m/s 745 mmHg 58%
    13:00 +24°C° 0 mm 2 m/s 745 mmHg 58%
    14:00 +24°C° 0 mm 2 m/s 745 mmHg 58%
    15:00 +24°C° 0 mm 2 m/s 744 mmHg 59%
    16:00 +24°C° 0 mm 2 m/s 744 mmHg 60%
    17:00 +23°C° 0.2 mm 2 m/s 744 mmHg 68%
    18:00 +21°C° 0.2 mm 2 m/s 744 mmHg 75%
    19:00 +19°C° 0.2 mm 2 m/s 744 mmHg 83%
    20:00 +18°C° 0.1 mm 2 m/s 745 mmHg 86%
    21:00 +17°C° 0.1 mm 2 m/s 745 mmHg 89%
    22:00 +16°C° 0.1 mm 2 m/s 746 mmHg 92%
    23:00 +16°C° 0 mm 2 m/s 746 mmHg 92%
    Voir plus